Theta_e
285 284 284 284 283 283 282 281 280 280 279 279 278 278 277 276 276 275 275 274 274 274 274 274 275 275 274 274 275 275 274 274 271 272 274 275 274 274 275 277 277 276 277
285 284 284 283 282 281 280 279 279 278 278 278 278 277 276 276 275 274 274 274 273 274 274 274 274 276 273 273 273 272 272 273 271 270 272 272 273 274 274 273 275 277 276
284 283 282 282 281 280 279 279 278 277 276 277 276 276 275 275 274 274 274 274 273 273 274 274 273 273 273 273 272 271 272 273 272 271 270 273 273 273 273 274 274 274 276
283 283 282 281 281 280 279 278 277 277 276 276 276 275 275 274 274 275 274 273 273 273 274 274 273 273 273 272 273 273 273 272 272 271 271 271 272 273 273 271 271 274 274
283 282 281 281 280 279 278 278 277 277 276 276 275 274 273 273 274 274 274 274 273 273 273 274 274 273 275 275 274 273 273 271 271 271 270 270 270 271 271 272 271 272 273
283 282 282 281 280 279 278 277 277 276 276 275 274 273 272 273 277 277 276 274 273 272 272 272 273 272 273 275 276 277 276 273 272 271 271 270 272 272 273 272 271 270 269
283 282 282 281 280 278 277 276 275 275 275 274 273 272 272 272 276 277 276 274 273 272 272 272 272 273 272 272 274 276 277 277 279 276 272 272 272 273 273 272 272 272 271
283 283 282 280 279 277 276 275 275 274 273 272 272 272 271 271 276 276 276 273 272 272 271 272 271 272 272 274 274 275 276 275 275 275 274 274 275 276 275 275 274 273 274
282 282 281 280 278 276 275 274 274 273 272 272 272 270 270 269 274 275 275 271 271 271 272 272 272 272 275 278 276 273 273 272 275 277 277 276 276 276 275 273 270 269 268
282 282 281 279 278 276 276 274 274 273 272 271 271 269 268 264 273 275 275 271 266 270 271 273 275 274 277 278 275 271 266 269 272 269 269 270 272 271 274 272 271 268 268
282 280 279 279 278 277 275 273 271 270 270 268 268 266 264 266 266 274 275 272 269 268 269 271 273 276 277 278 277 270 270 274 268 266 266 267 268 269 270 271 271 270 267
279 278 277 277 276 274 273 270 269 268 266 263 262 262 265 266 269 273 275 276 275 267 267 272 272 276 278 276 274 274 275 272 265 264 264 265 266 267 268 269 270 270 271
277 276 275 273 273 272 270 267 265 264 264 263 264 263 264 267 267 275 275 277 277 272 271 273 276 276 275 271 272 273 269 263 263 263 263 265 267 268 269 268 269 270 271
275 272 270 270 268 268 268 267 266 264 264 264 264 265 264 266 267 267 268 267 272 272 273 269 271 273 271 270 265 267 266 264 264 264 265 266 267 266 266 267 267 267 267
272 270 269 269 268 265 266 266 266 265 266 264 264 264 262 262 265 269 268 264 265 268 269 264 261 259 260 261 261 262 263 263 263 264 264 264 265 265 265 267 267 267 265
268 268 267 266 265 265 265 262 272 271 273 274 273 266 263 270 272 274 276 277 277 277 264 259 256 257 259 260 259 260 262 261 262 263 263 263 264 264 264 266 267 265 264
270 268 267 266 265 264 264 264 264 266 276 275 276 276 275 271 275 276 276 276 276 276 263 257 255 257 258 260 259 259 260 261 261 262 262 262 263 263 264 265 265 265 264
263 265 266 266 265 264 264 264 264 264 265 265 272 275 275 275 275 276 276 275 264 262 258 256 255 257 256 257 258 257 258 259 260 260 261 261 261 262 262 264 264 263 263
265 265 264 264 264 264 263 261 261 260 258 259 259 266 267 270 272 273 274 263 260 258 259 257 257 254 256 255 256 255 255 258 258 259 259 260 260 261 262 263 263 263 263
259 263 262 262 260 260 260 260 260 259 258 258 261 262 263 259 256 258 257 256 257 260 260 256 254 252 254 254 252 253 254 253 254 254 259 259 260 261 261 262 263 262 262
260 260 261 259 258 258 258 258 260 260 261 261 260 262 266 259 257 258 259 260 261 261 259 255 252 253 255 254 251 252 253 256 255 255 259 259 260 259 260 262 262 262 261
259 258 258 258 258 258 259 260 261 261 260 258 256 256 266 260 256 254 254 255 256 255 255 253 252 255 257 256 255 253 253 253 252 251 257 258 258 259 260 261 261 260 260
258 257 257 256 257 260 260 259 258 256 253 251 251 252 250 250 250 251 252 252 252 254 256 257 257 256 254 256 255 255 254 254 253 249 255 256 257 258 259 260 261 259 259
257 258 260 259 259 258 255 252 250 252 250 250 248 247 249 248 250 251 251 251 251 252 252 256 257 256 256 256 254 253 251 253 251 254 250 254 255 257 259 261 261 259 258
259 259 257 256 253 252 251 249 251 250 248 249 249 248 247 249 249 250 251 250 251 253 254 255 255 255 254 253 254 253 249 255 254 254 253 252 255 257 258 262 260 258 258
255 253 252 251 250 251 254 250 248 249 248 249 249 248 248 249 250 250 251 250 252 254 254 255 254 253 253 253 252 252 255 257 256 256 255 255 256 259 260 260 258 258 258
Wind_Speed
12 10 11 10 10 9 9 9 9 8 8 7 7 7 6 6 6 6 5 5 6 4 3 4 4 3 2 3 3 2 2 3 9 16 8 9 12 12 11 11 14 14 12
12 12 12 11 11 10 10 8 8 9 7 7 7 7 6 6 5 6 5 5 5 4 4 3 3 5 3 2 2 4 4 4 7 17 12 10 12 13 13 14 11 12 12
13 14 12 12 11 11 10 10 9 9 8 7 7 7 6 5 5 5 5 4 3 1 2 3 4 4 5 3 2 4 3 7 6 9 14 10 10 10 13 12 12 12 11
14 14 13 13 12 11 10 10 10 8 9 7 6 6 5 5 5 5 5 3 1 1 2 3 4 4 4 6 7 6 7 7 8 9 11 11 11 12 10 12 12 10 11
15 14 14 12 11 11 11 10 9 8 7 7 7 5 5 5 4 5 4 3 1 2 3 4 3 3 11 10 7 7 8 7 8 9 10 12 11 11 12 12 13 13 12
16 15 14 13 14 13 11 11 10 8 7 6 6 6 5 3 7 5 4 2 2 2 3 4 4 5 6 13 14 16 14 11 11 10 11 12 16 13 13 13 14 14 14
15 15 15 15 14 13 11 11 10 10 8 7 6 6 5 4 7 5 3 2 0 2 4 4 5 5 6 7 13 18 18 20 21 17 17 15 17 15 17 18 17 15 13
16 16 15 15 14 13 12 11 9 9 9 7 7 6 5 4 6 5 5 3 2 4 5 5 5 7 7 10 10 9 8 9 10 11 14 15 15 17 17 16 18 16 12
17 17 16 15 14 13 12 12 9 8 7 6 5 6 5 3 5 8 5 3 4 4 5 5 7 7 12 17 9 8 9 9 14 20 21 27 28 26 22 13 10 11 11
18 17 16 15 15 15 13 12 8 7 7 6 5 5 6 4 9 9 7 3 4 5 5 7 10 8 14 15 9 5 6 12 10 10 11 15 17 15 22 12 11 10 11
12 13 14 14 14 12 11 7 8 7 6 5 6 4 4 5 6 11 12 5 5 5 5 5 5 12 14 15 17 3 9 13 10 9 10 9 10 10 9 10 11 10 11
12 12 12 12 9 9 11 7 8 8 7 5 5 2 4 5 10 13 14 13 12 5 5 5 5 15 12 16 12 16 18 13 5 7 8 9 9 10 10 11 13 11 11
12 12 11 9 9 9 11 10 6 6 6 6 5 5 4 5 6 16 15 15 11 5 3 8 14 11 12 9 13 15 8 3 4 7 8 9 9 11 13 12 12 13 13
12 11 10 10 8 7 6 8 8 8 7 6 6 6 5 4 5 5 4 4 9 8 10 4 6 7 8 7 4 6 4 3 5 7 8 10 10 10 11 10 11 11 10
9 9 9 8 10 8 7 8 8 5 8 7 6 5 6 7 7 10 9 5 6 10 9 2 1 1 1 2 3 4 3 3 5 6 7 9 10 10 10 10 10 10 11
9 8 8 8 7 6 7 3 14 12 16 14 13 9 4 8 11 14 16 18 16 16 3 2 2 3 2 2 3 4 4 4 5 6 7 8 9 10 11 11 9 9 10
11 10 8 8 8 8 7 8 8 5 14 15 16 15 16 14 16 16 16 17 17 14 3 3 3 3 3 4 3 4 6 5 5 6 7 8 8 9 11 10 10 10 11
6 7 7 7 7 6 7 6 5 7 7 4 9 10 11 13 14 15 15 14 2 1 3 3 4 3 3 4 4 3 4 5 5 5 7 7 8 8 9 10 10 11 11
7 6 6 6 5 5 4 4 4 4 3 2 1 2 4 10 13 15 17 2 2 3 3 3 4 3 4 4 4 4 4 6 5 6 6 7 7 7 9 8 10 14 15
4 7 6 5 5 5 4 5 4 4 3 2 3 3 1 1 1 3 2 2 2 5 5 4 4 4 4 4 4 4 4 4 4 3 6 7 7 7 9 9 9 10 11
4 5 8 5 5 5 4 5 4 4 3 3 3 4 9 5 5 5 5 4 5 6 5 4 4 4 4 4 4 4 4 6 4 4 6 7 7 8 9 8 8 9 9
5 5 5 5 5 4 4 4 4 3 3 3 2 3 11 2 0 2 3 4 5 5 4 4 4 4 5 5 5 5 5 6 4 3 6 6 7 8 8 8 8 8 8
6 6 5 3 3 5 4 3 3 3 3 3 3 2 2 3 3 3 4 5 5 5 4 5 5 6 4 5 5 6 7 7 5 4 6 7 8 8 8 9 8 8 7
6 6 6 5 4 3 3 4 3 4 4 3 3 3 3 4 5 5 5 5 5 5 5 6 6 8 7 6 4 6 6 7 3 6 6 7 9 10 9 9 8 8 7
4 4 5 5 4 4 3 3 3 3 3 3 3 3 4 4 4 5 5 5 5 6 7 6 6 7 9 10 10 9 8 13 9 9 6 7 11 13 11 10 7 7 6
4 4 3 3 3 3 3 3 4 3 3 3 4 4 3 4 4 5 5 6 6 7 7 6 7 9 10 9 10 11 12 14 11 12 9 9 9 10 8 9 8 6 6
Wind_Direction
143 137 137 135 131 127 130 132 130 122 121 121 128 123 112 96 84 78 85 73 64 53 34 33 1 341 4 321 309 300 282 277 285 298 314 323 317 319 314 310 309 304 303
148 144 146 140 136 135 140 137 131 132 130 139 130 113 107 101 104 102 89 69 58 27 6 8 351 349 328 322 323 306 282 272 286 295 316 316 315 314 307 303 302 301 303
151 148 146 145 145 148 147 141 141 140 140 133 121 120 128 132 117 105 101 91 64 4 346 356 339 345 338 324 314 289 285 294 281 289 302 307 306 306 305 301 298 295 290
157 155 153 155 155 151 147 149 152 146 136 124 119 130 138 140 138 129 120 124 138 318 10 352 328 320 323 319 310 303 306 300 295 292 295 302 303 304 298 301 299 292 295
160 159 163 157 149 148 152 155 144 138 134 132 136 140 149 160 155 134 140 144 130 29 5 332 323 326 317 315 318 311 302 295 291 294 296 298 300 303 299 299 292 295 292
166 166 161 159 159 162 158 153 144 137 137 138 155 163 165 160 163 153 137 129 47 359 320 308 307 294 301 316 317 309 304 301 303 301 289 287 297 298 295 292 290 294 297
168 168 167 165 163 164 158 151 154 152 144 163 174 168 175 181 182 175 185 145 43 269 267 293 304 298 286 285 286 293 291 290 297 306 304 297 298 299 292 285 280 279 282
173 172 168 167 167 162 159 161 154 159 169 173 179 177 172 194 188 202 215 163 204 241 251 258 274 280 278 289 285 296 299 303 304 303 299 299 297 306 307 308 305 304 297
178 176 171 168 165 162 167 168 170 157 172 178 171 167 184 173 205 223 213 167 225 250 265 262 257 264 282 299 319 312 316 313 304 309 318 316 312 314 313 309 306 307 302
182 175 167 166 168 173 173 173 166 169 172 172 159 176 180 185 230 229 225 181 201 240 247 251 264 273 296 311 323 338 323 309 315 329 320 317 316 309 315 311 312 312 315
168 163 168 170 171 174 168 162 147 160 150 158 175 165 168 201 233 235 231 204 211 224 235 237 240 282 299 316 323 13 298 309 346 329 312 306 308 308 307 304 308 307 302
152 157 163 163 157 159 164 145 152 158 163 172 153 186 216 215 224 238 233 236 235 192 227 233 241 282 297 322 327 309 313 344 319 305 303 305 308 309 308 307 304 297 285
149 160 160 155 157 165 165 156 153 159 173 179 186 203 216 212 217 228 231 239 249 254 224 247 283 316 314 317 302 309 343 304 293 304 304 302 306 304 302 302 299 295 287
158 158 156 160 156 166 162 160 171 179 182 183 191 205 202 204 211 214 237 269 269 272 274 277 271 275 305 307 305 301 290 285 294 295 298 302 305 306 305 307 307 307 300
153 156 165 168 174 172 185 177 190 199 185 180 199 185 184 211 217 216 211 216 231 243 247 104 82 260 283 303 291 273 265 280 291 296 301 301 302 305 305 311 306 311 310
156 166 174 168 170 170 174 174 216 206 212 215 215 195 216 214 217 228 237 243 252 265 136 160 214 214 221 246 257 272 278 273 283 297 298 298 302 305 305 310 315 314 311
174 171 167 167 173 173 177 183 193 255 217 223 229 225 213 208 235 248 253 256 262 271 136 205 218 217 232 248 244 252 280 285 282 286 293 296 299 302 310 311 320 316 312
129 145 163 171 174 171 181 185 172 184 202 225 245 234 255 264 269 271 268 267 320 80 182 202 227 224 232 242 244 246 265 280 282 287 294 295 297 299 305 317 319 319 317
157 164 161 157 165 163 148 140 148 148 153 154 32 294 310 281 281 278 274 324 220 233 228 227 226 217 237 237 244 246 248 273 275 287 289 290 296 298 301 312 314 319 318
125 142 141 144 136 138 139 141 141 151 155 162 201 229 246 348 255 246 245 240 235 258 247 233 235 223 234 235 240 243 254 258 266 260 284 289 293 295 300 306 312 317 318
123 122 128 118 130 135 137 145 148 150 172 190 212 208 239 209 230 233 251 249 250 250 249 232 228 234 236 241 235 245 243 261 260 264 282 287 295 296 299 295 301 307 310
123 127 126 138 137 136 138 139 150 162 183 196 219 243 275 316 356 214 232 244 254 250 242 225 233 236 244 231 236 235 244 253 249 237 275 284 293 292 293 292 297 302 311
116 117 109 99 106 130 136 138 152 162 185 201 210 231 262 257 260 265 261 253 245 242 247 250 256 263 235 240 225 232 243 253 239 209 269 284 287 288 288 291 292 299 306
117 125 136 133 138 139 145 169 182 188 196 209 228 242 242 244 251 255 259 260 263 257 244 256 261 259 264 258 238 236 231 251 232 250 224 259 274 281 282 278 286 288 294
100 120 136 151 148 157 168 177 183 190 203 205 226 231 238 245 251 255 258 260 262 258 262 256 250 256 255 255 259 257 243 262 257 252 250 243 255 267 271 279 277 285 287
122 123 127 128 131 160 183 192 202 200 213 222 232 234 237 251 252 257 263 261 264 262 261 263 258 252 257 264 261 260 262 263 258 244 230 239 248 260 268 279 274 278 275